Find Kiku-1

NORAD ID: 8197 Int'l Des: 1975-082 Owner: NASDA Country: J operational
LEOCIRCULAR

Live Position

Loading 3D Globe...

About Kiku-1

Description loading...

Upcoming Passes

Passes for default location (London). Set your location on the main map for personalized predictions.

Altitude History

Loading altitude history...

Two-Line Element Set

1 8197U 75082A 26104.37776769 -.00000099 00000-0 34258-4 0 9997
2 8197 46.9871 138.5007 0085799 187.4725 186.8364 13.59601565513734
Epoch: Apr 14, 2026 • Age: 9 hours

Current Status

Altitude 1041.4 km
Velocity 7.34 km/s
Sub-Earth Point 46.44°N, 122.04°E
Type other

Most Searched